TimeCEST,TemperatureF,Dew PointF,Humidity,Sea Level PressureIn,VisibilityMPH,Wind Direction,Wind SpeedMPH,Gust SpeedMPH,PrecipitationIn,Events,Conditions,WindDirDegrees,DateUTC
12:00 AM,67,56,61,30.02,,East,1.2,,,,,80,2014-06-09 22:00:00
12:30 AM,66.2,55.4,68,30.01,-9999.0,NE,3.5,-,N/A,,Clear,50,2014-06-09 22:30:00
1:00 AM,66,56,61,30.03,,Calm,Calm,,,,,,2014-06-09 23:00:00
1:00 AM,66.2,55.4,68,30.01,-9999.0,Variable,2.3,-,N/A,,Clear,0,2014-06-09 23:00:00
1:30 AM,66.2,55.4,68,30.01,-9999.0,Calm,Calm,-,N/A,,Clear,0,2014-06-09 23:30:00
2:00 AM,64,55,64,30.02,9,East,3.5,,,,,80,2014-06-10 00:00:00
2:30 AM,62.6,55.4,77,30.01,-9999.0,Calm,Calm,-,N/A,,Clear,0,2014-06-10 00:30:00
3:00 AM,62,55,71,30.02,,NE,2.3,,,,,50,2014-06-10 01:00:00
3:00 AM,62.6,55.4,77,30.01,-9999.0,NE,1.2,-,N/A,,Clear,40,2014-06-10 01:00:00
3:30 AM,62.6,55.4,77,30.01,-9999.0,NE,2.3,-,N/A,,Clear,50,2014-06-10 01:30:00
4:00 AM,61,56,77,30.01,,NNE,2.3,,,,,30,2014-06-10 02:00:00
4:00 AM,60.8,55.4,82,30.01,-9999.0,NE,5.8,-,N/A,,Clear,50,2014-06-10 02:00:00
4:30 AM,62.6,55.4,77,30.01,-9999.0,North,3.5,-,N/A,,Clear,10,2014-06-10 02:30:00
5:00 AM,61,54,73,30.01,9,NE,1.2,,,,,40,2014-06-10 03:00:00
5:00 AM,60.8,55.4,82,30.01,-9999.0,Variable,2.3,-,N/A,,Clear,0,2014-06-10 03:00:00
5:30 AM,60.8,53.6,77,30.01,-9999.0,North,3.5,-,N/A,,Clear,10,2014-06-10 03:30:00
6:00 AM,60,53,71,30.00,,ENE,4.6,,,,,60,2014-06-10 04:00:00
6:00 AM,59.0,53.6,82,29.98,-9999.0,Variable,2.3,-,N/A,,Clear,0,2014-06-10 04:00:00
6:30 AM,59.0,51.8,77,30.01,-9999.0,NNE,4.6,-,N/A,,Clear,30,2014-06-10 04:30:00
7:00 AM,61,52,64,30.01,,North,4.6,,,,,350,2014-06-10 05:00:00
7:00 AM,60.8,51.8,72,30.01,-9999.0,North,4.6,-,N/A,,Clear,10,2014-06-10 05:00:00
7:30 AM,64.4,53.6,68,30.01,-9999.0,NE,4.6,-,N/A,,Clear,40,2014-06-10 05:30:00
8:00 AM,70,53,43,30.01,12,Calm,Calm,,,,Scattered Clouds,,2014-06-10 06:00:00
8:30 AM,73.4,51.8,47,30.01,-9999.0,ENE,3.5,-,N/A,,Clear,60,2014-06-10 06:30:00
9:00 AM,77,52,31,30.02,,NNE,1.2,,,,,30,2014-06-10 07:00:00
9:00 AM,77.0,51.8,41,30.01,-9999.0,Variable,2.3,-,N/A,,Clear,0,2014-06-10 07:00:00
9:30 AM,80.6,46.4,30,30.01,-9999.0,Variable,2.3,-,N/A,,Clear,0,2014-06-10 07:30:00
10:00 AM,85,45,15,30.02,,Calm,Calm,,,,,,2014-06-10 08:00:00
10:00 AM,84.2,42.8,23,30.01,-9999.0,Variable,2.3,-,N/A,,Clear,0,2014-06-10 08:00:00
10:30 AM,84.2,44.6,25,30.01,-9999.0,Calm,Calm,-,N/A,,Clear,0,2014-06-10 08:30:00
11:00 AM,88,46,14,30.02,16,West,3.5,,,,Clear,260,2014-06-10 09:00:00
11:00 AM,86.0,44.6,23,30.01,-9999.0,North,1.2,-,N/A,,Clear,350,2014-06-10 09:00:00
11:30 AM,86.0,44.6,23,30.01,-9999.0,WSW,5.8,-,N/A,,Clear,250,2014-06-10 09:30:00
12:00 PM,89,47,14,30.02,,SW,10.4,,,,,230,2014-06-10 10:00:00
12:00 PM,87.8,44.6,22,30.01,-9999.0,WSW,9.2,-,N/A,,Clear,240,2014-06-10 10:00:00
12:30 PM,86.0,46.4,25,30.01,-9999.0,WSW,10.4,-,N/A,,Clear,240,2014-06-10 10:30:00
1:00 PM,87,51,19,30.02,,WSW,13.8,,,,,240,2014-06-10 11:00:00
1:00 PM,86.0,46.4,25,30.01,-9999.0,SW,10.4,-,N/A,,Clear,230,2014-06-10 11:00:00
1:30 PM,82.4,50.0,32,30.01,-9999.0,SW,13.8,-,N/A,,Clear,230,2014-06-10 11:30:00
2:00 PM,84,55,27,30.02,19,SW,15.0,,,,,220,2014-06-10 12:00:00
2:00 PM,82.4,53.6,37,30.01,-9999.0,SW,13.8,-,N/A,,Clear,230,2014-06-10 12:00:00
2:30 PM,80.6,59.0,48,30.01,-9999.0,SSW,15.0,-,N/A,,Clear,210,2014-06-10 12:30:00
3:00 PM,84,59,33,30.03,,SW,15.0,,,,,220,2014-06-10 13:00:00
4:00 PM,84,57,30,30.02,,SW,16.1,,,,,220,2014-06-10 14:00:00
4:00 PM,80.6,55.4,42,30.01,-9999.0,WSW,15.0,-,N/A,,Clear,240,2014-06-10 14:00:00
4:30 PM,82.4,48.2,30,30.01,-9999.0,SW,12.7,-,N/A,,Clear,230,2014-06-10 14:30:00
5:00 PM,84,52,23,30.02,25,SSW,11.5,,,,,210,2014-06-10 15:00:00
5:00 PM,82.4,50.0,32,30.01,-9999.0,WSW,10.4,-,N/A,,Clear,240,2014-06-10 15:00:00
5:30 PM,82.4,50.0,32,30.01,-9999.0,SW,10.4,-,N/A,,Clear,230,2014-06-10 15:30:00
6:00 PM,85,52,22,30.02,,SW,9.2,,,,,230,2014-06-10 16:00:00
6:00 PM,84.2,51.8,33,30.01,-9999.0,SW,8.1,-,N/A,,Clear,230,2014-06-10 16:00:00
6:30 PM,82.4,48.2,30,30.01,-9999.0,WSW,6.9,-,N/A,,Clear,240,2014-06-10 16:30:00
7:00 PM,84,52,23,30.01,,WSW,8.1,,,,,240,2014-06-10 17:00:00
7:00 PM,82.4,50.0,32,30.01,-9999.0,WSW,4.6,-,N/A,,Clear,240,2014-06-10 17:00:00
7:30 PM,82.4,51.8,35,30.01,-9999.0,WSW,3.5,-,N/A,,Clear,240,2014-06-10 17:30:00
8:00 PM,83,53,25,30.01,19,WSW,3.5,,,,Clear,250,2014-06-10 18:00:00
8:00 PM,80.6,51.8,37,30.01,-9999.0,WSW,2.3,-,N/A,,Clear,240,2014-06-10 18:00:00
8:30 PM,80.6,53.6,39,30.01,-9999.0,Variable,1.2,-,N/A,,Clear,0,2014-06-10 18:30:00
9:00 PM,79,54,31,30.02,,Calm,Calm,,,,,,2014-06-10 19:00:00
9:00 PM,78.8,53.6,42,30.01,-9999.0,Calm,Calm,-,N/A,,Clear,0,2014-06-10 19:00:00
9:30 PM,77.0,53.6,44,30.01,-9999.0,Calm,Calm,-,N/A,,Clear,0,2014-06-10 19:30:00
10:00 PM,74,54,39,30.05,,Calm,Calm,,,,,,2014-06-10 20:00:00
10:00 PM,73.4,55.4,53,30.04,-9999.0,Calm,Calm,-,N/A,,Clear,0,2014-06-10 20:00:00
10:30 PM,73.4,53.6,50,30.04,-9999.0,Variable,1.2,-,N/A,,Clear,0,2014-06-10 20:30:00
11:00 PM,71,55,47,30.07,16,NE,2.3,,,,Clear,40,2014-06-10 21:00:00
11:30 PM,71.6,55.4,57,30.06,-9999.0,NE,5.8,-,N/A,,Clear,50,2014-06-10 21:30:00